GLOBALSTAR M052 [-]

Last updated on Fri Dec 29 2023 00:02:56 GMT+0000 (Coordinated Universal Time)

1 25773U 99031D 23361.54783271 -.00000050 00000+0 52646-3 0 9999 2 25773 51.9875 88.7177 0001975 23.2954 75.1289 11.15046957 76369

Satellite not in orbit

GLOBALSTAR M052 [-]